Location: Unspecified
(51.0950°N, 12.9690°E)
Time: 00:58:42
(UTC+00:00)

METEOR M2 - Pass Details

Date: 23 April 2024
Orbit: 817 x 827 km, 98.4° (Epoch: 19 May)

Event Time Altitude Azimuth Distance (km) Brightness Sun altitude
Rises 03:04:19 0° 31° (NNE) 3,362 ? -8.1°
Reaches altitude 10° 03:08:32 10° 63° (ENE) 2,421 ? -7.5°
Maximum altitude 03:10:22 12° 83° (E) 2,301 ? -7.3°
Drops below altitude 10° 03:12:11 10° 103° (ESE) 2,413 ? -7.0°
Sets 03:16:21 0° 135° (SE) 3,337 ? -6.5°
